カタログに戻る

DELTA 1 DEB

運用中UNKNOWN
NORAD 17000·DEBRIS·🇺🇸 United States

打ち上げ Jul 29, 1976 から Vandenberg Space Force Base

Loading…

次のパス (今後24時間)

TLE

最新Source: Space-Track

元期: Sep 14, 2026, 15:43 UTC

1 17000U 76077EX  26257.65497722  .00003124  00000-0  51329-1 0  9990
2 17000 102.4936 312.1660 0684007 243.3896 280.0609 11.32914500746899

AllMySatでDELTA 1 DEBをリアルタイム追跡

Download on the App Store